7 * 24
多渠道服务支持
STARLINK-36314(NORAD编号68741)是SpaceX星链(Starlink)互联网卫星星座中的一颗低轨通信卫星。星链项目旨在搭建覆盖全球的天基互联网系统,为全球用户提供低成本、高速率的宽带服务。作为星链扩容批次的一员,该卫星运行在近地轨道,承担着增强全球网络覆盖,尤其是偏远地区网络接入能力的任务。它依托星链星座的组网设计,与其他卫星协同工作,为地面用户提供稳定的互联网通信服务,是SpaceX推进全球卫星互联网布局的组成部分。
美国
(US)
| 数据来源 | 国际轨道数据 |
| 星历时间: | 2026-05-24T12:00:02+0800 1天前 查看轨道信息 |
| 半长轴: | 6797.252km |
| 偏心率: | 0.0001383 |
| 轨道倾角: | 97.285° |
| 近地点辐角 | 101.567° |
| 升交点赤经 | 7.779° |
| 平近点角 | 199.841° |
| 近地点: | 418.174km |
| 远地点: | 420.056km |
| 周期: | 92.952分钟 |
| 每日圈数: | 15.491832 |